Location: Zagreb
(45.8000°N, 16.0000°E)
Time: 20:46:51
(UTC+01:00)

CUTE-I - Pass Details

Date: 05 November 2020
Orbit: 811 x 824 km, 98.7° (Epoch: 01 December)

Event Time Altitude Azimuth Distance (km) Brightness Sun altitude
Rises 04:44:35 0° 34° (NE) 3,360 ? -20.8°
Reaches altitude 10° 04:48:48 10° 66° (ENE) 2,423 ? -20.0°
Maximum altitude 04:50:37 12° 86° (E) 2,305 ? -19.7°
Drops below altitude 10° 04:52:27 10° 107° (ESE) 2,419 ? -19.4°
Sets 04:56:37 0° 139° (SE) 3,347 ? -18.7°
